Location: *
(2.5500°S, 65.9667°W)
Time: 07:09:24
(UTC+00:00)

Ariane 3 Deb - Visible Passes

Search period start: 21 May 2022 00:00
Search period end: 31 May 2022 00:00
Orbit: 311 x 17888 km, 6.7° (Epoch: 20 May)

Date Brightness Start Highest point End Pass type
(mag) Time Alt. Az. Time Alt. Az. Time Alt. Az.
21 May 5.9 01:19:29 10° WNW 01:19:53 11° WNW 01:19:53 11° WNW visible
21 May 5.3 07:02:59 74° NNE 07:02:59 74° NNE 08:04:31 10° E visible
22 May 6.7 09:40:52 10° W 10:02:53 88° S 13:39:40 10° E visible
23 May 5.7 01:13:24 10° WNW 01:14:26 13° NW 01:14:26 13° NW visible
23 May 5.3 06:57:31 73° NE 06:57:31 73° NE 07:53:09 10° E visible
24 May 6.7 09:34:55 10° W 09:55:56 87° S 13:32:02 10° E visible
25 May 5.5 01:07:03 10° WNW 01:08:49 15° NW 01:08:49 15° NW visible
25 May 5.4 06:51:54 70° ENE 06:51:54 70° ENE 07:42:02 10° E visible
26 May 6.6 09:28:46 10° W 09:48:51 87° S 13:24:00 10° E visible
27 May 5.3 01:00:29 10° WNW 01:03:01 17° NW 01:03:01 17° NW visible
27 May 5.5 06:46:05 66° ENE 06:46:05 66° ENE 07:31:10 10° E visible
28 May 6.5 09:22:46 12° W 09:41:35 87° S 13:15:34 10° E visible
29 May 5.1 00:53:41 10° WNW 00:57:01 19° NW 00:57:01 19° NW visible
29 May 5.5 06:40:05 62° ENE 06:40:05 62° ENE 07:20:30 10° E visible
30 May 6.5 09:16:41 14° W 09:34:10 86° S 13:06:43 10° E visible
